Regional Weather Roundup
Issued by NWS

Home | Current Version | Previous Version | Text Only | Print | Product List | Glossary On
Versions: 1 2 3 4 5 6 7 8 9 10 11 12 13 14 15 16 17 18 19 20 21 22 23 24 25 26 27 28 29 30 31 32 33 34 35 36 37 38 39 40 41 42 43 44 45 46 47 48 49 50
000
ASUS43 KOAX 231803
RWRNE

WEATHER ROUNDUP FOR NEBRASKA
NATIONAL WEATHER SERVICE OMAHA NE
100 PM CDT WED MAY 23 2018

NOTES: SATELLITE DATA IS BEING USED TO AUGMENT CLOUD COVER ABOVE
       12000 FEET.
       "FAIR" INDICATES FEW OR NO CLOUDS BELOW 12,000 FEET WITH NO
       SIGNIFICANT WEATHER AND/OR OBSTRUCTIONS TO VISIBILITY.


NEZ001>004-019>022-054>056-231900-
NEBRASKA PANHANDLE

CITY           SKY/WX    TMP DP  RH WIND       PRES   REMARKS
SCOTTSBLUFF    SUNNY     74  55  51 VRB3      29.96F
6HR MIN TEMP:  51; 6HR MAX TEMP:  74;

ALLIANCE       MOSUNNY   76  51  41 VRB5      29.94F
6HR MIN TEMP:  53; 6HR MAX TEMP:  76; 6HR PCP: TRACE;

CHADRON        PTSUNNY   69  58  67 W5        29.94F
6HR MIN TEMP:  56; 6HR MAX TEMP:  69;

GORDON         MOCLDY    71  61  70 CALM      29.96F
6HR MIN TEMP:  56; 6HR MAX TEMP:  71;

KIMBALL        SUNNY     72  51  48 SE5       30.01S
SIDNEY         MOSUNNY   75  56  51 E6        29.99S
6HR MIN TEMP:  51; 6HR MAX TEMP:  75;

$$

NEZ057>060-069>072-079>082-231900-
SOUTHWEST NEBRASKA

CITY           SKY/WX    TMP DP  RH WIND       PRES   REMARKS
NORTH PLATTE   CLOUDY    79  61  53 S12G21    29.97F
6HR MIN TEMP:  65; 6HR MAX TEMP:  79;

IMPERIAL       CLOUDY    79  53  40 S15G26    29.98R
6HR MIN TEMP:  61; 6HR MAX TEMP:  79;

LEXINGTON      PTSUNNY   78  62  58 SE6       29.99F
MCCOOK         PTSUNNY   80  61  52 S12       29.97F
6HR MIN TEMP:  63; 6HR MAX TEMP:  81;

OGALLALA       PTSUNNY   78  54  43 S18G25    29.96R
$$

NEZ005>010-023>029-035>040-094-231900-
NORTH CENTRAL NEBRASKA

CITY           SKY/WX    TMP DP  RH WIND       PRES   REMARKS
VALENTINE      MOSUNNY   80  57  45 SW17G25   29.93S
6HR MIN TEMP:  68; 6HR MAX TEMP:  83;

AINSWORTH      MOSUNNY   83  61  47 S15G21    29.95S
BROKEN BOW     PTSUNNY   76  62  62 S13       30.00S
6HR MIN TEMP:  67; 6HR MAX TEMP:  81;

O`NEILL        MOSUNNY   84  63  49 S16G24    29.97F
ORD            PTSUNNY   80  62  54 S17       29.99R
6HR MIN TEMP:  67; 6HR MAX TEMP:  82;

THEDFORD       PTSUNNY   81  54  39 S21G29    29.97S
$$

NEZ041-046>049-061>064-073>077-083>087-231900-
SOUTH CENTRAL NEBRASKA

CITY           SKY/WX    TMP DP  RH WIND       PRES   REMARKS
GRAND ISLAND   MOSUNNY   85  65  51 S16G26    30.01S
6HR MIN TEMP:  67; 6HR MAX TEMP:  85;

AURORA         MOSUNNY   86  62  44 S15       30.01S
HASTINGS       SUNNY     84  66  54 S12G25    30.01F
6HR MIN TEMP:  66; 6HR MAX TEMP:  85;

HEBRON         MOSUNNY   89  58  35 S15G24    30.03S
HOLDREGE       SUNNY     82  61  47 S18       29.99F
KEARNEY        CLOUDY    84  62  47 S18G24    30.00F
YORK           SUNNY     86  61  42 S18G24    30.02F
$$

NEZ011>018-030>034-042>045-231900-
NORTHEAST NEBRASKA

CITY           SKY/WX    TMP DP  RH WIND       PRES   REMARKS
NORFOLK        SUNNY     87  61  41 S17G31    29.98F
6HR MIN TEMP:  68; 6HR MAX TEMP:  87;

ALBION         MOSUNNY   85  69  58 S17G26    30.00F
BLAIR          MOSUNNY   86  65  49 S16G23    30.05F
COLUMBUS       MOSUNNY   89  64  43 S17       30.02F HX  90
FREMONT        MOSUNNY   89  63  41 S15G23    30.04F
TEKAMAH        PTSUNNY   85  68  56 S15G23    30.04S
6HR MIN TEMP:  66; 6HR MAX TEMP:  85;

WAYNE          CLOUDY    84  64  49 SE20G26   30.01F
$$

NEZ050>053-065>068-078-088>093-231900-
SOUTHEAST NEBRASKA

CITY           SKY/WX    TMP DP  RH WIND       PRES   REMARKS
LINCOLN        MOSUNNY   88  63  43 S16G29    30.03F
6HR MIN TEMP:  68; 6HR MAX TEMP:  88;

OMAHA EPPLEY   MOSUNNY   87  63  44 S14       30.05F
6HR MIN TEMP:  68; 6HR MAX TEMP:  87;

BEATRICE       MOSUNNY   87  66  48 S14       30.04F
FALLS CITY     MOSUNNY   87  62  43 S12       30.05F
6HR MIN TEMP:  66; 6HR MAX TEMP:  89;

NEBRASKA CITY  MOSUNNY   88  61  39 S16G24    30.06F
PLATTSMOUTH    MOSUNNY   87  65  47 S13       30.06F
$$

NEZ044-045-051>053-067-231900-
OMAHA AREA

CITY           SKY/WX    TMP DP  RH WIND       PRES   REMARKS
OMAHA EPPLEY   MOSUNNY   87  63  44 S14       30.05F
6HR MIN TEMP:  68; 6HR MAX TEMP:  87;

BLAIR          MOSUNNY   86  65  49 S16G23    30.05F
FREMONT        MOSUNNY   89  63  41 S15G23    30.04F
MILLARD        MOSUNNY   87  67  50 SE14      30.04F
OFFUTT AFB     MOSUNNY   87  67  51 S13       30.04F HX  90
PLATTSMOUTH    MOSUNNY   87  65  47 S13       30.06F
WAHOO          FAIR      88  58  36 S13       30.04F
$$



USA.gov is the U.S. government's official web portal to all federal, state and local government web resources and services.